ATLAS 5 CENTAUR DEB, 44002

Orbit data source: Space-Track

ATLAS 5 CENTAUR DEB, 44002 is space debris in HEO originally from a launch on Wed, 17 Sep 2014 UTC launched from the Air Force Eastern Test Range (AFETR). Debris objects in space refer to the collection of defunct objects orbiting the Earth. Examples of debris include non-operational satellites, rocket bodies, and fragments generated from explosions, collisions, or faulty payload assembly.

Loading next visibility...
Identifier
44002, 2014-055BH
Orbit
HEO
Country
Flag of USUS
Related business
Flag of USUnited Launch Alliance/Lockheed Martin (US)
Manufacturer
Unknown
Mission
Spacecraft
Bus & Motor
Unknown
Mass
Unknown
Launch date (UTC)
2014-09-17 (11 years ago)
Launch vehicle
Unknown
Launch site
Air Force Eastern Test Range (AFETR)
Object type
Payload
Rocket body
Debris
Shape & HBR
Unknown shape, 1.1 m
Radar Cross Section
Medium (>0.1 m² and <1 m²)

Expand to show TLE details & history
Last TLE update: 9 hours ago

TLE from 9 hours ago
0 ATLAS 5 CENTAUR DEB
1 44002U 14055BH  26035.44441056 -.00000063  00000-0  00000+0 0  9998
2 44002  19.6863 161.3854 4825542 132.3459 280.0171  1.83903658 49937
Epoch: 2026-02-04T10:39Z
TLE epoch observation values (Epoch: 2026-02-04T10:39:57.072Z)
Latitude
Longitude
-133.30176°
Altitude
25,639.66 km
Speed
3.276 km/s
True Right ascension
10h 45m 11s
True Declination
0° 00' 00"
Sunlit
Object was in daylight at epoch
Visualization orbit readout
Latitude
Unknown
Longitude
Unknown
Altitude
Unknown
Speed
Unknown
Apparent Right ascension
Unknown
Apparent Declination
Unknown
Sunlit
N/A
Visualization observer readout
Local Sidereal Time
21:47:46
Azimuth
Unknown
Elevation
Unknown
Doppler factor
Unknown
Orbital elements
Apogee altitude
35,345.511 km
Perigee altitude
8,184.384 km
Semi-major axis
28,143.084 km
Eccentricity
0.48255
Inclination
19.6863°
RAAN
161.3854°
Arg. of periapsis
132.3459°
True anomaly
227.61507°
Mean anomaly
280.0171°
Eccentric anomaly
253.50646°
Mean motion
0.45971 °/min
Orbital period
783.1 mins
BSTAR
0
Loading maneuver chart data...
Computing Atmospheric mass density...

Documentation

Showing up to 5 results
|